Waarnemingen

Advertentie
Mijn weer
Salon, Frankrijk (7648): temperatuur & dauwpunt: 18.02.2017 16:00:00 - 24.02.2017 16:00:00 (CET)Salon, Frankrijk (7648): temperatuur 5cm: 18.02.2017 16:00:00 - 24.02.2017 16:00:00 (CET)Salon, Frankrijk (7648): windsnelheid & windstoten: 18.02.2017 16:00:00 - 24.02.2017 16:00:00 (CET)Salon, Frankrijk (7648): windrichting: 18.02.2017 16:00:00 - 24.02.2017 16:00:00 (CET)Salon, Frankrijk (7648): luchtdruk: 18.02.2017 16:00:00 - 24.02.2017 16:00:00 (CET)Salon, Frankrijk (7648): zicht: 18.02.2017 16:00:00 - 24.02.2017 16:00:00 (CET)Salon, Frankrijk (7648): neerslag: 18.02.2017 16:00:00 - 24.02.2017 16:00:00 (CET)
Datum & Tijd tt [°C] td [°C] tt 5cm [°C] ff [km/u] ff [kn] fx [km/u] fx [kn] dd ppp [hPa] vv [km] rr [mm]
24.02.2017 16:00:00 13,3 -2,7 15,2 51 28 78 42 NNW 1010,5 30 0,0
24.02.2017 15:00:00 13,7 -1,9 16,2 40 22 66 36 NNW 1010,6 34 0,0
24.02.2017 14:00:00 14,1 1,0 12,8 35 19 68 37 NNW 1010,6 34 0,0
24.02.2017 13:00:00 12,1 1,1 12,6 50 27 70 38 NNW 1011,4 20 0,0
24.02.2017 12:00:00 12,8 3,4 13,1 41 22 58 32 NNW 1011,8 60 0,0
24.02.2017 11:00:00 12,1 5,3 12,2 17 9 36 19 NW 1012,0 50 0,0
24.02.2017 10:00:00 11,7 7,8 11,4 23 13 35 19 NNW 1011,7 13 0,0
24.02.2017 09:00:00 10,7 8,6 9,9 11 6 20 11 NW 1011,6 9 0,0
24.02.2017 08:00:00 10,3 9,2 9,2 2 1 13 7 W 1011,3 6 0,0
24.02.2017 07:00:00 10,2 9,1 8,9 9 5 17 9 WNW 1011,3 6 0,0
24.02.2017 06:00:00 9,1 7,9 8,8 0 0 5 3 N 1011,9 16 0,0
24.02.2017 05:00:00 8,9 7,5 8,4 0 0 4 2 N 1012,0 17 0,0
24.02.2017 04:00:00 8,5 7,1 7,5 4 2 10 6 Z 1012,1 16 0,0
24.02.2017 03:00:00 7,9 6,7 7,2 0 0 11 6 N 1012,3 19 0,0
24.02.2017 02:00:00 7,7 6,5 6,4 3 2 8 5 Z 1013,0 16 0,0
24.02.2017 01:00:00 7,3 6,1 5,7 3 1 6 3 OZO 1013,3 16 0,0
24.02.2017 00:00:00 8,6 6,9 6,3 3 2 10 5 ZW 1013,5 17 0,0
23.02.2017 23:00:00 8,1 6,9 6,9 9 5 14 7 ONO 1013,5 16 0,0
23.02.2017 22:00:00 8,5 6,8 6,3 5 3 8 4 ZZO 1013,8 16 0,0
23.02.2017 21:00:00 9,0 6,8 7,0 0 0 9 5 N 1013,8 20 0,0
23.02.2017 20:00:00 9,7 7,1 7,5 6 3 9 5 NO 1013,5 18 0,0
23.02.2017 19:00:00 12,5 8,4 10,2 3 2 13 7 ZZO 1013,3 32 0,0
23.02.2017 18:00:00 13,7 7,9 - 5 3 18 10 Z 1013,1 35 0,0
23.02.2017 17:00:00 14,7 8,4 15,2 12 7 26 14 Z 1013,3 37 0,0
23.02.2017 16:00:00 17,1 8,8 20,8 16 8 25 13 Z 1013,4 40 0,0
23.02.2017 15:00:00 17,1 8,8 21,3 14 7 31 17 ZZO 1013,9 60 0,0
23.02.2017 14:00:00 16,9 8,8 21,4 20 11 31 17 Z 1014,9 60 0,0
23.02.2017 13:00:00 16,9 8,1 20,7 20 11 31 17 Z 1015,6 60 0,0
23.02.2017 12:00:00 17,1 6,9 22,9 10 6 20 11 Z 1016,4 20 0,0
23.02.2017 11:00:00 17,7 6,8 20,2 9 5 20 11 OZO 1016,4 43 0,0
23.02.2017 10:00:00 13,6 6,5 - 8 4 13 7 O 1017,0 55 -
23.02.2017 09:00:00 8,6 6,4 2,6 8 5 17 9 ONO 1017,1 32 0,0
23.02.2017 08:00:00 3,2 2,6 -0,3 0 0 6 3 N 1017,5 18 0,0
23.02.2017 07:00:00 3,5 2,9 -0,1 0 0 6 3 N 1017,1 27 0,0
23.02.2017 06:00:00 3,7 3,3 - 4 2 9 5 NO 1017,3 16 0,0
23.02.2017 05:00:00 3,8 3,4 0,5 6 4 11 6 ONO 1017,3 14 0,0
23.02.2017 04:00:00 4,4 4,0 1,4 0 0 7 4 N 1017,5 9 0,0
23.02.2017 03:00:00 4,1 3,7 0,2 7 4 12 6 ONO 1018,0 17 0,0
23.02.2017 02:00:00 4,9 4,3 1,6 0 0 10 6 N 1018,7 16 0,0
23.02.2017 01:00:00 4,9 4,2 2,6 6 3 10 6 ONO 1018,7 18 0,0
23.02.2017 00:00:00 5,0 4,3 1,4 7 4 9 5 NO 1018,9 20 0,0
22.02.2017 23:00:00 5,6 4,6 1,6 0 0 6 3 N 1019,0 28 0,0
22.02.2017 22:00:00 6,4 5,0 3,1 0 0 5 3 N 1019,1 27 0,0
22.02.2017 21:00:00 8,6 5,7 4,2 0 0 6 3 N 1018,9 51 0,0
22.02.2017 20:00:00 11,3 6,8 6,6 4 2 13 7 ZW 1018,7 55 0,0
22.02.2017 19:00:00 14,8 7,1 13,7 10 6 18 10 W 1018,3 60 0,0
22.02.2017 18:00:00 17,7 6,8 16,2 11 6 23 12 WZW 1017,6 42 0,0
22.02.2017 17:00:00 19,6 5,3 22,3 15 8 28 15 WNW 1017,7 53 0,0
22.02.2017 16:00:00 19,7 4,6 23,4 16 9 31 17 WNW 1018,0 60 0,0
22.02.2017 15:00:00 19,7 4,2 23,4 17 9 32 18 WNW 1018,3 60 0,0
22.02.2017 14:00:00 19,5 4,8 - 16 9 35 19 NW 1018,8 60 0,0
22.02.2017 13:00:00 18,3 6,2 20,9 14 8 29 16 NW 1019,5 20 0,0
22.02.2017 12:00:00 17,0 7,6 17,7 11 6 26 14 NNW 1020,1 44 0,0
22.02.2017 11:00:00 14,6 7,9 - 16 9 29 16 NNW 1020,4 19 0,0
22.02.2017 10:00:00 10,2 6,5 10,8 0 0 7 4 N 1020,7 20 0,0
22.02.2017 09:00:00 6,4 4,6 4,0 0 0 3 2 N 1020,9 17 0,0
22.02.2017 08:00:00 2,9 2,3 0,1 2 1 7 4 NNO 1020,6 15 0,0
22.02.2017 07:00:00 3,4 2,5 0,8 5 3 10 6 NNO 1020,4 20 0,0
22.02.2017 06:00:00 4,5 3,5 1,2 2 1 9 5 N 1020,0 20 0,0
22.02.2017 05:00:00 7,1 4,7 4,2 6 3 19 10 ONO 1020,1 46 0,0
22.02.2017 04:00:00 8,5 5,4 5,0 5 3 15 8 NNW 1019,8 56 0,0
22.02.2017 03:00:00 10,3 7,2 6,9 7 4 17 9 ZZW 1020,1 60 0,0
22.02.2017 02:00:00 11,4 7,7 8,2 4 2 11 6 Z 1020,1 60 0,0
22.02.2017 01:00:00 12,1 7,6 10,1 4 2 34 18 O 1020,0 60 0,0
22.02.2017 00:00:00 12,8 7,2 11,0 24 13 37 20 NNW 1019,6 60 0,0
21.02.2017 23:00:00 13,4 6,9 11,8 10 6 31 17 NW 1019,4 60 0,0
21.02.2017 22:00:00 13,9 6,5 10,6 11 6 22 12 WNW 1019,7 60 0,0
21.02.2017 21:00:00 14,6 6,7 13,3 4 2 56 30 W 1019,6 60 0,0
21.02.2017 20:00:00 15,5 6,8 - 34 18 72 39 NNW 1018,8 60 0,0
21.02.2017 19:00:00 16,1 7,0 - 46 25 68 37 NNW 1018,2 60 -
21.02.2017 18:00:00 16,9 7,5 16,3 40 22 66 36 NNW 1018,0 60 0,0
21.02.2017 17:00:00 18,4 6,9 19,6 42 23 71 38 NNW 1018,0 27 0,0
21.02.2017 16:00:00 19,5 7,9 21,4 37 20 72 39 NNW 1018,1 24 0,0
21.02.2017 15:00:00 19,2 7,9 21,3 32 18 67 36 NW 1018,4 27 0,0
21.02.2017 14:00:00 19,2 7,9 21,3 37 20 58 32 NW 1019,3 28 0,0
21.02.2017 13:00:00 18,5 8,5 20,5 33 18 48 26 NNW 1020,4 29 0,0
21.02.2017 12:00:00 15,9 8,1 18,2 17 9 26 14 N 1021,4 28 0,0
21.02.2017 11:00:00 12,8 6,6 15,6 17 9 24 13 N 1022,1 20 0,0
21.02.2017 10:00:00 10,8 5,7 10,7 13 7 22 12 NNW 1022,7 19 0,0
21.02.2017 09:00:00 4,5 2,5 2,5 3 1 7 4 N 1023,1 19 0,0
21.02.2017 08:00:00 1,4 0,5 -0,8 4 2 5 3 ZW 1023,1 20 0,0
21.02.2017 07:00:00 1,1 0,2 -1,4 3 1 7 4 NNO 1022,9 20 0,0
21.02.2017 06:00:00 1,8 0,8 -1,2 2 1 7 4 NO 1022,8 21 0,0
21.02.2017 05:00:00 1,8 0,5 -0,6 3 1 5 3 N 1023,0 27 0,0
21.02.2017 04:00:00 2,7 0,6 0,9 2 1 10 5 NNW 1023,0 27 0,0
21.02.2017 03:00:00 4,2 1,2 2,2 4 2 16 9 NO 1023,3 27 0,0
21.02.2017 02:00:00 4,9 1,9 - 4 2 15 8 Z 1023,7 30 0,0
21.02.2017 01:00:00 3,7 0,9 1,1 4 2 12 6 NNW 1023,5 31 0,0
21.02.2017 00:00:00 5,2 1,7 2,1 3 1 9 5 NNO 1023,5 35 0,0
20.02.2017 23:00:00 5,8 1,9 3,9 5 3 16 9 O 1023,6 31 0,0
20.02.2017 22:00:00 10,3 1,9 5,7 9 5 14 7 NNW 1023,0 60 0,0
20.02.2017 21:00:00 11,0 2,0 7,4 3 2 11 6 NW 1022,7 60 0,0
20.02.2017 20:00:00 12,3 1,9 9,8 3 2 14 7 ZZW 1022,6 59 0,0
20.02.2017 19:00:00 13,0 1,9 10,1 5 3 31 17 Z 1022,2 60 0,0
20.02.2017 18:00:00 14,6 2,1 13,7 14 8 33 18 NNW 1021,8 59 0,0
20.02.2017 17:00:00 16,3 1,9 18,2 19 10 35 19 NNW 1021,6 60 0,0
20.02.2017 16:00:00 17,4 1,8 19,6 21 11 36 20 NNW 1021,7 60 0,0
20.02.2017 15:00:00 17,0 0,6 19,5 28 15 39 21 NNW 1021,8 60 0,0
20.02.2017 14:00:00 16,5 0,6 18,9 28 15 39 21 N 1022,2 56 0,0
20.02.2017 13:00:00 15,4 1,5 17,5 25 13 40 21 N 1023,1 55 0,0
20.02.2017 12:00:00 14,1 2,3 15,4 22 12 39 21 N 1023,8 59 0,0
20.02.2017 11:00:00 11,9 2,3 14,1 24 13 41 22 N 1024,2 60 0,0
20.02.2017 10:00:00 10,5 2,1 11,3 14 7 31 17 N 1024,3 19 0,0
20.02.2017 09:00:00 9,2 1,8 8,2 15 8 29 15 N 1023,8 34 0,0
20.02.2017 08:00:00 8,3 1,2 6,4 5 3 29 16 OZO 1023,2 37 0,0
20.02.2017 07:00:00 7,9 1,1 - 15 8 37 20 NNW 1022,8 35 -
20.02.2017 06:00:00 8,1 0,6 7,2 17 9 51 28 NW 1022,3 42 0,0
20.02.2017 05:00:00 8,7 0,4 7,9 27 15 59 32 NNW 1022,0 40 0,0
20.02.2017 04:00:00 9,6 -1,2 8,7 31 17 62 33 NNW 1021,8 54 0,0
20.02.2017 03:00:00 9,9 -2,1 8,2 20 11 36 20 NNW 1022,4 60 0,0
20.02.2017 02:00:00 10,2 2,3 4,2 13 7 27 15 WNW 1022,8 41 0,0
20.02.2017 01:00:00 6,7 3,1 2,0 5 3 12 6 ZZW 1023,3 46 0,0
20.02.2017 00:00:00 9,5 3,9 5,0 8 4 19 10 WNW 1023,0 27 0,0
19.02.2017 23:00:00 6,3 4,8 3,5 5 3 8 5 WZW 1023,4 10 0,0
19.02.2017 22:00:00 7,0 4,6 3,6 0 0 4 2 N 1023,6 14 0,0
19.02.2017 21:00:00 7,4 4,5 4,1 3 2 13 7 ONO 1023,7 16 0,0
19.02.2017 20:00:00 10,1 6,1 8,4 5 3 11 6 W 1023,8 24 0,0
19.02.2017 19:00:00 11,6 4,6 10,1 5 3 22 12 W 1023,7 35 0,0
19.02.2017 18:00:00 13,7 4,0 13,0 13 7 25 13 W 1023,2 50 0,0
19.02.2017 17:00:00 15,9 4,6 18,2 16 9 25 14 W 1023,2 49 0,0
19.02.2017 16:00:00 16,8 2,0 20,1 13 7 26 14 W 1023,8 59 0,0
19.02.2017 15:00:00 16,6 2,6 - 13 7 26 14 W 1024,2 35 0,0
19.02.2017 14:00:00 17,0 2,2 20,9 13 7 24 13 W 1024,8 49 0,0
19.02.2017 13:00:00 16,6 -0,6 21,4 11 6 23 12 WZW 1025,8 60 0,0
19.02.2017 12:00:00 15,8 1,1 20,5 9 5 15 8 WZW 1026,6 57 0,0
19.02.2017 11:00:00 13,9 4,2 - 4 2 8 4 NW 1027,0 18 0,0
19.02.2017 10:00:00 9,9 5,1 12,4 6 4 10 5 NNW 1027,0 20 0,0
19.02.2017 09:00:00 6,0 4,2 1,0 0 0 3 1 N 1027,0 19 0,0
19.02.2017 08:00:00 2,3 1,7 -1,1 0 0 3 2 N 1026,6 10 0,0
19.02.2017 07:00:00 2,5 1,5 - 0 0 4 2 N 1025,9 10 -
19.02.2017 06:00:00 3,8 2,6 1,5 0 0 10 5 N 1025,7 15 0,0
19.02.2017 05:00:00 4,1 2,8 1,6 6 4 9 5 N 1025,3 17 0,0
19.02.2017 04:00:00 4,3 2,6 1,7 4 2 8 5 O 1025,1 17 0,0
19.02.2017 03:00:00 6,2 3,9 4,3 7 4 11 6 NO 1024,9 20 0,0
19.02.2017 02:00:00 7,4 5,5 6,5 3 1 6 3 NO 1024,8 16 0,0
19.02.2017 01:00:00 7,7 6,0 6,3 0 0 6 4 N 1024,6 14 0,0
19.02.2017 00:00:00 7,6 5,9 6,4 0 0 5 3 N 1024,4 12 0,0
18.02.2017 23:00:00 7,6 6,2 6,0 2 1 8 5 NO 1024,3 11 0,0
18.02.2017 22:00:00 6,7 5,5 5,0 3 1 5 3 NO 1023,9 13 0,0
18.02.2017 21:00:00 7,1 5,4 4,7 5 3 6 3 ONO 1023,6 15 0,0
18.02.2017 20:00:00 7,9 6,0 5,3 0 0 6 3 N 1022,9 15 0,0
18.02.2017 19:00:00 12,1 7,6 10,4 2 1 10 5 ZW 1022,4 19 0,0
18.02.2017 18:00:00 14,2 7,5 13,3 8 4 21 12 ZW 1021,9 32 0,0
18.02.2017 17:00:00 16,1 6,8 18,1 14 8 23 12 ZW 1021,3 32 0,0
18.02.2017 16:00:00 16,9 6,1 18,2 16 8 24 13 ZZW 1020,8 37 0,0

tt = temperatuur
td = dauwpunt
tt 5cm = temperatuur 5cm
ff = windsnelheid
fx = windstoten
dd = windrichting
ppp = luchtdruk
vv = zicht
rr = neerslag

Weerstations in de omgeving